User: anonymous   Login
Location: Arboyeti
(42.1122°N, 44.6017°E)
Time: 10:04:28
(UTC+00:00)
Language:

N. Korean satellite - Orbit

View from above orbital plane
View from above orbital plane
View from above satellite
View from above satellite

Ground track
Ground track

The orbit data is extracted from the following two-line orbital elements,

1 39026U 12072A   21288.71439960  .00005849  00000-0  19423-3 0  9990
2 39026  97.2539 278.7654 0033357 317.9525  41.9157 15.31059745491426
Epoch (UTC): 15 October 2021 17:08:44
Eccentricity: 0.0033357
inclination: 97.2539°
perigee height: 450 km
apogee height: 495 km
right ascension of ascending node: 278.7654°
argument of perigee: 317.9525°
revolutions per day: 15.31059745
mean anomaly at epoch: 41.9157°
orbit number at epoch: 49142

The dashed part of the orbit path shows where the satellite is in the earth's shadow,  

DLR